Tracking 26325 objects as of 28-Nov-2022
HD Live streaming from Space Station
objects crossing your sky now

BREEZE M DEB (TANK)

Track BREEZE M DEB (TANK) now!
10-day predictions


NORAD ID: 41583
Int'l Code: 2016-035C
Perigee: 351.5 km
Apogee: 13,975.8 km
Inclination: 50.8 °
Period: 261.2 minutes
Semi major axis: 13534 km
RCS: Unknown
Launch date: June 9, 2016
Source: Commonwealth of Independent States (former USSR) (CIS)
Launch site: ()

Note: This is SATELLITE DEBRIS
aabbcc
Your satellite tracking list
Your tracking list is empty




NASA's NSSDC Master Catalog

Two Line Element Set (TLE):
1 41583U 16035C   22332.03535551  .00000967  00000-0  28194-3 0  9994
2 41583  50.7530 269.6325 5033141 236.3859  65.3475  5.51356602129970
Source of the keplerian elements: AFSPC